Regional Weather Roundup
Issued by NWS

Home | Current Version | Previous Version | Graphics & Text | Print | Product List | Glossary On
Versions: 1 2 3 4 5 6 7 8 9 10 11 12 13 14 15 16 17 18 19 20 21 22 23 24 25 26 27 28 29 30 31 32 33 34 35 36 37 38 39 40 41 42 43 44 45 46 47 48 49 50
859
ASUS43 KLOT 191108
RWRIL

ILLINOIS REGIONAL WEATHER ROUNDUP
NATIONAL WEATHER SERVICE CHICAGO/ROMEOVILLE IL
600 AM CDT SAT AUG 19 2017

NOTE: "FAIR" INDICATES FEW OR NO CLOUDS BELOW 12,000 FEET WITH NO
SIGNIFICANT WEATHER AND/OR OBSTRUCTIONS TO VISIBILITY.

* THESE STATIONS ARE NOT UNDER NWS QUALITY CONTROL. THEY ALSO MAY NOT
  REPORT WEATHER SUCH AS PRECIPITATION OR FOG.

ILZ001-002-007-009-015-016-024-191200-
NORTHWEST ILLINOIS

CITY           SKY/WX    TMP DP  RH WIND       PRES   REMARKS
MOLINE         PTCLDY    64  61  90 SE3       29.93R
STERLING*      CLEAR     60  59  96 S5        29.95R
SAVANNA*       PTCLDY    56  56  99 NE5       29.93F FOG
$$

ILZ003-004-008-010-011-017-018-191200-
NORTH CENTRAL ILLINOIS

CITY           SKY/WX    TMP DP  RH WIND       PRES   REMARKS
ROCKFORD       PTCLDY    59  58  96 CALM      29.94R
FREEPORT*      CLEAR     57  57 100 SW7       29.97R FOG
ROCHELLE*      PTCLDY    55  54  98 CALM      29.95R
DE KALB*       PTCLDY    59  58  98 CALM      29.95R FOG
PERU*          MOCLDY    59  58  94 W3        29.97R
$$

ILZ005-006-012>014-019>023-191200-
NORTHEAST ILLINOIS

CITY           SKY/WX    TMP DP  RH WIND       PRES   REMARKS
CHICAGO-OHARE  PTCLDY    63  59  87 CALM      29.92R
CHICAGO-MIDWAY PTCLDY    65  60  84 W3        29.92R
AURORA         PTCLDY    56  56 100 CALM      29.94R FOG
LANSING*       CLEAR     62  56  83 CALM      29.92R
JOLIET*        PTCLDY    62  61  99 CALM      29.93R
WAUKEGAN       PTCLDY    61  60  97 NW5       29.91R FOG
DUPAGE AIRPORT PTCLDY    59  59 100 CALM      29.92R
WHEELING       PTCLDY    61  61 100 N5        29.93R
MORRIS*        CLEAR     59  58  96 CALM      29.93R
ROMEOVILLE*    PTCLDY    60  55  85 CALM      29.93R
NORTHERLY ISL    N/A     67  60  78 W2          N/A
$$

LMZ740>746-191200-
SOUTHERN LAKE MICHIGAN

STATION/POSITION SKY/WX   TEMP    WIND        PRES    VSBY  WAVE
                          AIR SEA DIR/SP/G                  HT/PER
                          (F)     (DEG/KT/KT) (MB)    (MI)  (FT/S)
SOUTHERN BUOY              69 71  350/ 10/ 12 1012.2R         2/ 4
WILMETTE HARBOR            68 73  330/ 10/ 12   N/A           2/ 3
HARRISON CRIB              68     320/  7/  8   N/A
CALUMET HARBOR             67     260/  2/  2 1012.5R
BURNS HARBOR               70     350/  6/ 10 1013.2R
MICHIGAN CITY              69     350/  7/  8   N/A
MICHIGAN CITY 6N           70 74  340/  6/ 10   N/A           3/ 4
ST. JOSEPH                 71 73   10/ 10/ 12 1012.5          3/ 4
$$

ILZ025>027-034>036-040-047-049-050-058-095>099-191200-
WEST-CENTRAL ILLINOIS

CITY           SKY/WX    TMP DP  RH WIND       PRES   REMARKS
QUINCY         CLEAR     65  63  93 NW5       29.92R
GALESBURG*     CLOUDY    64  60  88 CALM      29.95R
MACOMB*        CLOUDY    63  63  99 E3        29.95S
JACKSONVILLE*  CLEAR     63  62  97 CALM      29.92R
PITTSFIELD*    CLEAR     70  68  94 W5        29.93R
$$

ILZ028>032-037-038-041>044-048-051>054-059>061-191200-
CENTRAL ILLINOIS

CITY           SKY/WX    TMP DP  RH WIND       PRES   REMARKS
PONTIAC        CLEAR     63  62  97 CALM      29.94R
BLOOMINGTON    CLEAR     62  60  93 NE7       29.94R
DECATUR        CLEAR     64  62  93 NE5       29.92R
PEORIA         CLOUDY    67  64  90 NE6G23    29.95R
LACON*         CLOUDY    65  63  93 NW8       29.97R
LINCOLN*       CLEAR     62  62 100 N3        29.92S FOG
SPRINGFIELD    PTCLDY    65  64  97 CALM      29.92R
TAYLORVILLE    PTCLDY    65  64  99 CALM      29.92S
$$

ILZ033-039-045-046-055>057-062-063-191200-
EAST-CENTRAL ILLINOIS

CITY           SKY/WX    TMP DP  RH WIND       PRES   REMARKS
CHAMPAIGN      CLEAR     61  59  93 CALM      29.92S
RANTOUL*       CLEAR     65  64  96 CALM      29.92R
MATTOON        CLEAR     69  67  93 SW3       29.91R
PARIS*         PTCLDY    61  61  99 CALM      29.93S
$$

ILZ079-100>102-191200-
SOUTHWEST ILLINOIS

CITY           SKY/WX    TMP DP  RH WIND       PRES   REMARKS
ALTON          CLEAR     65  65 100 CALM      29.92S
BELLEVILLE     CLEAR     69  66  92 CALM      29.94R
CAHOKIA*       PTCLDY    70  66  87 CALM      29.93R
SPARTA*        MOCLDY    70  67  90 CALM      29.94R
$$

ILZ064>066-069>071-074>076-080>082-084>086-088>090-092>094-191200-
SOUTH-CENTRAL ILLINOIS

CITY           SKY/WX    TMP DP  RH WIND       PRES   REMARKS
CARBONDALE     PTCLDY    68  68 100 CALM      29.94R
CAIRO*         CLOUDY    68  67  98 S3        29.95R
EFFINGHAM*     PTCLDY    66  66 100 CALM      29.95R
MARION         MOCLDY    72  72 100 CALM      29.95R
MT. VERNON     LGT RAIN  68  66  93 S5        29.94R
CENTRALIA*     MOCLDY    71  69  94 S3        29.92S
SALEM*         CLOUDY    71  68  88 CALM      29.93S
METROPOLIS*    PTCLDY    68  67  97 CALM      29.96R
$$

ILZ067-068-072-073-078-083-087-091-191200-
SOUTHEAST ILLINOIS

CITY           SKY/WX    TMP DP  RH WIND       PRES   REMARKS
LAWRENCEVILLE  CLOUDY    69  66  90 S3        29.93R
FLORA*         CLOUDY    71  68  90 SW7       29.94S
FAIRFIELD*     LGT RAIN  70  68  92 SW6       29.93R
HARRISBURG*    PTCLDY    67  66  97 CALM      29.95R
ROBINSON*      CLOUDY    69  66  91 SW3       29.93R
CARMI*         PTCLDY    65  65 100 CALM      29.94S
$$

ABBREVIATIONS USED IN REMARKS
   TC - TEMPERATURE IN CELSIUS
  WCI - WIND CHILL INDEX
   HX - HEAT INDEX
  VSB - VISIBILITY
$$





USA.gov is the U.S. government's official web portal to all federal, state and local government web resources and services.